INDIA1 VABB-VIDP

Flight info

Callsign INDIA1
Flight time 1h 29m
Altitude 41000
Route ANOL2A ISRIS Q1 UKASO
Aircraft B77W/H-SADE1E2E3FGHIJ2J3J4J5J6J7M1M3P1P2P3RUWXYZ/LB1D1

Departure

Time 2026-04-29 16:35
Airport Chhatrapati Shivaji Maharaj International Airport (VABB)

Arrival

Time 2026-04-29 18:04
Airport Indira Gandhi International Airport (VIDP)
Time Latitude Longitude Altitude Speed Heading
2026-04-29 16:22 19.08598 72.86600 54 ft 0 kts 84°
2026-04-29 16:28 19.08600 72.86604 49 ft 4 kts 71°
2026-04-29 16:28 19.08644 72.86632 48 ft 10 kts 43°
2026-04-29 16:28 19.08689 72.86687 48 ft 10 kts 60°
2026-04-29 16:28 19.08694 72.86756 49 ft 9 kts 84°
2026-04-29 16:29 19.08700 72.86830 49 ft 11 kts 84°
2026-04-29 16:29 19.08706 72.86916 54 ft 12 kts 88°
2026-04-29 16:29 19.08706 72.87007 55 ft 12 kts 90°
2026-04-29 16:29 19.08705 72.87104 55 ft 14 kts 92°
2026-04-29 16:30 19.08737 72.87148 49 ft 0 kts
2026-04-29 16:31 19.08738 72.87148 49 ft 0 kts
2026-04-29 16:31 19.08823 72.87085 51 ft 25 kts 314°
2026-04-29 16:32 19.08945 72.86949 50 ft 22 kts 313°
2026-04-29 16:32 19.09037 72.86934 48 ft 12 kts 56°
2026-04-29 16:32 19.09046 72.87034 53 ft 15 kts 88°
2026-04-29 16:32 19.09048 72.87148 51 ft 16 kts 89°
2026-04-29 16:33 19.09051 72.87417 50 ft 20 kts 89°
2026-04-29 16:33 19.09053 72.87567 49 ft 21 kts 89°
2026-04-29 16:33 19.09056 72.87726 48 ft 22 kts 89°
2026-04-29 16:34 19.09058 72.87894 48 ft 23 kts 89°
2026-04-29 16:34 19.09025 72.88049 48 ft 19 kts 147°
2026-04-29 16:34 19.08925 72.88052 50 ft 15 kts 195°
2026-04-29 16:34 19.08890 72.87950 51 ft 28 kts 280°
2026-04-29 16:35 19.08880 72.87310 57 ft 149 kts 268°
2026-04-29 16:35 19.08870 72.85953 640 ft 208 kts 270°
2026-04-29 16:35 19.08863 72.84271 1539 ft 241 kts 269°
2026-04-29 16:35 19.08841 72.82449 2811 ft 254 kts 270°
2026-04-29 16:36 19.08809 72.80542 3962 ft 263 kts 270°
2026-04-29 16:36 19.08773 72.78586 5210 ft 268 kts 271°
2026-04-29 16:36 19.08736 72.76623 6449 ft 272 kts 270°
2026-04-29 16:36 19.08716 72.74609 7650 ft 274 kts 274°
2026-04-29 16:37 19.09271 72.72671 8658 ft 283 kts 301°
2026-04-29 16:37 19.10660 72.71198 9743 ft 290 kts 327°
2026-04-29 16:37 19.12598 72.70463 10638 ft 309 kts 352°
2026-04-29 16:37 19.14071 72.70487 10967 ft 331 kts
2026-04-29 16:38 19.17005 72.72012 11307 ft 374 kts 34°
2026-04-29 16:38 19.19265 72.73565 11872 ft 394 kts 29°
2026-04-29 16:38 19.21789 72.74749 12877 ft 401 kts 15°
2026-04-29 16:38 19.24551 72.75082 13988 ft 402 kts 354°
2026-04-29 16:39 19.27303 72.74600 14876 ft 405 kts 348°
2026-04-29 16:39 19.30069 72.74116 15790 ft 410 kts 351°
2026-04-29 16:39 19.32911 72.73903 16605 ft 415 kts
2026-04-29 16:39 19.35807 72.74247 17488 ft 421 kts
2026-04-29 16:40 19.38708 72.74817 18447 ft 424 kts 10°
2026-04-29 16:40 19.41616 72.75428 19300 ft 428 kts 10°
2026-04-29 16:40 19.44575 72.76015 20087 ft 434 kts
2026-04-29 16:40 19.47587 72.76564 20856 ft 440 kts
2026-04-29 16:41 19.50588 72.77069 21641 ft 445 kts
2026-04-29 16:41 19.53666 72.77560 22429 ft 450 kts
2026-04-29 16:41 19.56785 72.78042 23212 ft 455 kts
2026-04-29 16:41 19.59946 72.78525 23870 ft 460 kts
2026-04-29 16:42 19.63129 72.79009 24477 ft 465 kts
2026-04-29 16:42 19.66352 72.79501 25065 ft 470 kts
2026-04-29 16:42 19.69611 72.80001 25627 ft 476 kts
2026-04-29 16:42 19.72903 72.80506 26186 ft 481 kts
2026-04-29 16:43 19.76231 72.81019 26717 ft 486 kts
2026-04-29 16:43 19.79597 72.81539 27266 ft 490 kts
2026-04-29 16:43 19.82983 72.82062 27775 ft 495 kts
2026-04-29 16:43 19.86416 72.82592 28267 ft 500 kts
2026-04-29 16:44 19.89874 72.83127 28741 ft 504 kts
2026-04-29 16:44 19.93351 72.83665 29202 ft 507 kts
2026-04-29 16:44 19.96872 72.84209 29575 ft 513 kts
2026-04-29 16:44 20.00394 72.84754 29939 ft 517 kts
2026-04-29 16:45 20.03966 72.85309 30258 ft 520 kts
2026-04-29 16:45 20.07550 72.85865 30580 ft 522 kts
2026-04-29 16:45 20.11109 72.86391 30950 ft 522 kts
2026-04-29 16:45 20.14704 72.86863 31408 ft 520 kts
2026-04-29 16:46 20.18284 72.87306 31889 ft 518 kts
2026-04-29 16:46 20.21865 72.87740 32370 ft 517 kts
2026-04-29 16:46 20.25438 72.88176 32826 ft 517 kts
2026-04-29 16:46 20.29008 72.88619 33272 ft 516 kts
2026-04-29 16:47 20.32577 72.89070 33756 ft 515 kts
2026-04-29 16:47 20.36138 72.89524 34194 ft 514 kts
2026-04-29 16:47 20.39683 72.89978 34628 ft 513 kts
2026-04-29 16:47 20.43223 72.90432 35118 ft 510 kts
2026-04-29 16:48 20.46743 72.90884 35633 ft 507 kts
2026-04-29 16:48 20.50184 72.91325 36134 ft 504 kts
2026-04-29 16:48 20.53657 72.91768 36584 ft 502 kts
2026-04-29 16:48 20.57113 72.92210 37037 ft 500 kts
2026-04-29 16:49 20.60563 72.92650 37530 ft 497 kts
2026-04-29 16:49 20.63991 72.93088 38030 ft 494 kts
2026-04-29 16:49 20.67408 72.93525 38466 ft 493 kts
2026-04-29 16:49 20.70804 72.93960 38810 ft 491 kts
2026-04-29 16:50 20.74201 72.94395 39139 ft 490 kts
2026-04-29 16:50 20.77580 72.94772 39451 ft 487 kts
2026-04-29 16:50 20.80968 72.94960 39741 ft 485 kts 358°
2026-04-29 16:50 20.84293 72.95049 40043 ft 484 kts 357°
2026-04-29 16:51 20.87663 72.95116 40360 ft 482 kts 357°
2026-04-29 16:51 20.91015 72.95195 40674 ft 481 kts 358°
2026-04-29 16:51 20.97698 72.95413 40702 ft 472 kts 360°
2026-04-29 16:52 21.04154 72.95663 40793 ft 460 kts 360°
2026-04-29 16:52 21.10568 72.95906 40795 ft 462 kts 360°
2026-04-29 16:53 21.16956 72.96385 40805 ft 466 kts
2026-04-29 16:53 21.23304 72.97995 40793 ft 472 kts 15°
2026-04-29 16:54 21.29509 73.00373 40805 ft 474 kts 17°
2026-04-29 16:54 21.35708 73.02828 40794 ft 475 kts 17°
2026-04-29 16:55 21.41917 73.05258 40788 ft 475 kts 17°
2026-04-29 16:55 21.47901 73.07575 40783 ft 474 kts 16°
2026-04-29 16:56 21.53920 73.09899 40774 ft 473 kts 16°
2026-04-29 16:56 21.60108 73.12291 40776 ft 472 kts 16°
2026-04-29 16:57 21.66298 73.14687 40779 ft 471 kts 16°
2026-04-29 16:57 21.72461 73.17076 40769 ft 470 kts 16°
2026-04-29 16:58 21.78621 73.19465 40766 ft 470 kts 16°
2026-04-29 16:58 21.84533 73.21761 40765 ft 470 kts 16°
2026-04-29 16:59 21.90697 73.24156 40760 ft 470 kts 16°
2026-04-29 16:59 21.96864 73.26554 40758 ft 471 kts 16°
2026-04-29 17:00 22.02988 73.28939 40753 ft 471 kts 16°
2026-04-29 17:00 22.09173 73.31349 40754 ft 472 kts 16°
2026-04-29 17:01 22.15362 73.33763 40757 ft 472 kts 16°
2026-04-29 17:01 22.21515 73.36165 40750 ft 473 kts 16°
2026-04-29 17:02 22.27707 73.38585 40751 ft 473 kts 16°
2026-04-29 17:02 22.33904 73.41009 40750 ft 473 kts 16°
2026-04-29 17:03 22.40091 73.43431 40748 ft 473 kts 16°
2026-04-29 17:03 22.46281 73.45857 40752 ft 473 kts 15°
2026-04-29 17:04 22.52465 73.48283 40751 ft 472 kts 15°
2026-04-29 17:04 22.58645 73.50710 40753 ft 472 kts 15°
2026-04-29 17:05 22.64779 73.53122 40758 ft 471 kts 15°
2026-04-29 17:05 22.70937 73.55544 40757 ft 471 kts 15°
2026-04-29 17:06 22.77085 73.57966 40754 ft 470 kts 15°
2026-04-29 17:06 22.83244 73.60394 40753 ft 470 kts 15°
2026-04-29 17:07 22.88348 73.62409 40759 ft 470 kts 15°
2026-04-29 17:07 22.95533 73.65250 40766 ft 470 kts 15°
2026-04-29 17:08 23.01685 73.67685 40760 ft 471 kts 15°
2026-04-29 17:08 23.07810 73.70112 40762 ft 471 kts 15°
2026-04-29 17:09 23.13977 73.72557 40760 ft 472 kts 15°
2026-04-29 17:09 23.20160 73.75012 40759 ft 473 kts 15°
2026-04-29 17:10 23.26343 73.77470 40761 ft 473 kts 15°
2026-04-29 17:10 23.32530 73.79931 40759 ft 473 kts 15°
2026-04-29 17:11 23.38703 73.82387 40772 ft 478 kts 15°
2026-04-29 17:11 23.44991 73.84893 40768 ft 482 kts 15°
2026-04-29 17:12 23.51316 73.87416 40765 ft 484 kts 15°
2026-04-29 17:12 23.55513 73.89093 40762 ft 485 kts 15°
2026-04-29 17:13 23.63946 73.92465 40762 ft 485 kts 15°
2026-04-29 17:13 23.70280 73.95001 40759 ft 484 kts 15°
2026-04-29 17:14 23.76590 73.97530 40759 ft 482 kts 15°
2026-04-29 17:14 23.81821 73.99628 40761 ft 481 kts 15°
2026-04-29 17:15 23.88103 74.02149 40764 ft 480 kts 15°
2026-04-29 17:15 23.95440 74.05097 40767 ft 480 kts 15°
2026-04-29 17:16 24.00655 74.07195 40768 ft 480 kts 15°
2026-04-29 17:16 24.06935 74.09708 40778 ft 480 kts 15°
2026-04-29 17:17 24.13179 74.12177 40783 ft 481 kts 15°
2026-04-29 17:17 24.19485 74.14678 40786 ft 482 kts 15°
2026-04-29 17:18 24.25804 74.17203 40786 ft 482 kts 15°
2026-04-29 17:18 24.32111 74.19755 40793 ft 483 kts 15°
2026-04-29 17:19 24.38383 74.22299 40791 ft 484 kts 15°
2026-04-29 17:19 24.44709 74.24864 40792 ft 484 kts 15°
2026-04-29 17:20 24.51027 74.27427 40790 ft 484 kts 15°
2026-04-29 17:20 24.57342 74.29990 40794 ft 483 kts 15°
2026-04-29 17:21 24.63625 74.32543 40793 ft 483 kts 15°
2026-04-29 17:21 24.69930 74.35108 40790 ft 483 kts 15°
2026-04-29 17:22 24.76240 74.37678 40790 ft 483 kts 15°
2026-04-29 17:22 24.82540 74.40247 40789 ft 483 kts 15°
2026-04-29 17:23 24.88845 74.42820 40787 ft 482 kts 15°
2026-04-29 17:23 24.95102 74.45378 40790 ft 482 kts 15°
2026-04-29 17:24 25.01393 74.47951 40793 ft 482 kts 15°
2026-04-29 17:24 25.07681 74.50526 40787 ft 482 kts 15°
2026-04-29 17:25 25.13967 74.53103 40786 ft 482 kts 14°
2026-04-29 17:25 25.20259 74.55689 40780 ft 482 kts 14°
2026-04-29 17:26 25.26540 74.58278 40778 ft 482 kts 14°
2026-04-29 17:26 25.32824 74.60870 40776 ft 482 kts 14°
2026-04-29 17:27 25.39071 74.63450 40770 ft 482 kts 14°
2026-04-29 17:27 25.45353 74.66046 40772 ft 482 kts 14°
2026-04-29 17:28 25.51631 74.68645 40770 ft 482 kts 14°
2026-04-29 17:28 25.57922 74.71251 40763 ft 482 kts 14°
2026-04-29 17:29 25.64210 74.73859 40758 ft 482 kts 14°
2026-04-29 17:29 25.69440 74.76030 40761 ft 482 kts 14°
2026-04-29 17:30 25.76742 74.79066 40755 ft 482 kts 14°
2026-04-29 17:30 25.83043 74.81688 40750 ft 483 kts 14°
2026-04-29 17:31 25.89337 74.84310 40750 ft 483 kts 14°
2026-04-29 17:31 25.95595 74.86921 40747 ft 483 kts 14°
2026-04-29 17:32 26.01899 74.89554 40744 ft 483 kts 14°
2026-04-29 17:32 26.08190 74.92184 40747 ft 484 kts 14°
2026-04-29 17:33 26.14503 74.94827 40741 ft 484 kts 14°
2026-04-29 17:33 26.20808 74.97468 40741 ft 484 kts 14°
2026-04-29 17:34 26.27121 75.00111 40735 ft 484 kts 14°
2026-04-29 17:34 26.33395 75.02743 40739 ft 485 kts 14°
2026-04-29 17:35 26.42871 75.06724 40736 ft 485 kts 14°
2026-04-29 17:36 26.49189 75.09370 40736 ft 485 kts 14°
2026-04-29 17:36 26.55524 75.12014 40724 ft 485 kts 14°
2026-04-29 17:37 26.61859 75.14664 40726 ft 486 kts 14°
2026-04-29 17:37 26.68188 75.17316 40722 ft 486 kts 14°
2026-04-29 17:38 26.74499 75.19964 40723 ft 487 kts 14°
2026-04-29 17:38 26.80852 75.22635 40716 ft 487 kts 14°
2026-04-29 17:39 26.87198 75.25307 40719 ft 487 kts 14°
2026-04-29 17:39 26.93553 75.27985 40721 ft 487 kts 14°
2026-04-29 17:40 26.99870 75.30651 40717 ft 488 kts 14°
2026-04-29 17:40 27.06226 75.33336 40719 ft 488 kts 14°
2026-04-29 17:41 27.12579 75.36028 40716 ft 488 kts 14°
2026-04-29 17:41 27.18868 75.38924 40714 ft 494 kts 21°
2026-04-29 17:42 27.24692 75.43197 40723 ft 506 kts 32°
2026-04-29 17:42 27.29845 75.48622 40729 ft 512 kts 38°
2026-04-29 17:43 27.34874 75.54318 40726 ft 513 kts 38°
2026-04-29 17:43 27.39921 75.59969 40685 ft 505 kts 37°
2026-04-29 17:43 27.42396 75.62718 40413 ft 495 kts 37°
2026-04-29 17:44 27.44848 75.65428 39693 ft 494 kts 37°
2026-04-29 17:44 27.47316 75.68142 38768 ft 499 kts 36°
2026-04-29 17:44 27.49827 75.70904 37672 ft 506 kts 36°
2026-04-29 17:44 27.52320 75.73654 36608 ft 510 kts 37°
2026-04-29 17:45 27.54861 75.76467 35593 ft 513 kts 37°
2026-04-29 17:45 27.57411 75.79300 34599 ft 515 kts 38°
2026-04-29 17:45 27.59965 75.82137 33581 ft 516 kts 38°
2026-04-29 17:45 27.62534 75.84988 32329 ft 519 kts 39°
2026-04-29 17:46 27.65159 75.87790 31005 ft 520 kts 37°
2026-04-29 17:46 27.67887 75.90492 29870 ft 521 kts 37°
2026-04-29 17:46 27.70627 75.93135 28921 ft 515 kts 37°
2026-04-29 17:46 27.73337 75.95728 28198 ft 505 kts 37°
2026-04-29 17:47 27.75966 75.98249 27504 ft 497 kts 37°
2026-04-29 17:47 27.78580 76.00766 26762 ft 490 kts 37°
2026-04-29 17:47 27.81158 76.03259 26011 ft 485 kts 37°
2026-04-29 17:47 27.83707 76.05734 25274 ft 480 kts 37°
2026-04-29 17:48 27.86227 76.08185 24593 ft 474 kts 37°
2026-04-29 17:48 27.88719 76.10616 23926 ft 469 kts 37°
2026-04-29 17:48 27.91177 76.13018 23279 ft 464 kts 37°
2026-04-29 17:48 27.93605 76.15389 22533 ft 459 kts 37°
2026-04-29 17:49 27.96007 76.17736 21813 ft 454 kts 37°
2026-04-29 17:49 27.98384 76.20058 21112 ft 449 kts 37°
2026-04-29 17:49 28.00712 76.22333 20434 ft 445 kts 37°
2026-04-29 17:49 28.03041 76.24611 19765 ft 441 kts 37°
2026-04-29 17:50 28.05353 76.26873 19119 ft 437 kts 37°
2026-04-29 17:50 28.07644 76.29117 18486 ft 433 kts 37°
2026-04-29 17:50 28.09911 76.31339 17859 ft 429 kts 37°
2026-04-29 17:50 28.12156 76.33540 17189 ft 425 kts 37°
2026-04-29 17:51 28.14383 76.35724 16510 ft 422 kts 37°
2026-04-29 17:51 28.16598 76.37897 15870 ft 419 kts 37°
2026-04-29 17:51 28.18790 76.40053 15214 ft 416 kts 38°
2026-04-29 17:51 28.20987 76.42150 14545 ft 410 kts 33°
2026-04-29 17:52 28.23403 76.43833 13872 ft 405 kts 22°
2026-04-29 17:52 28.25109 76.44624 13733 ft 393 kts 15°
2026-04-29 17:52 28.28502 76.45819 13619 ft 371 kts 12°
2026-04-29 17:52 28.30940 76.46601 13530 ft 357 kts 12°
2026-04-29 17:53 28.33289 76.47352 13461 ft 345 kts 11°
2026-04-29 17:53 28.35559 76.48081 13379 ft 333 kts 11°
2026-04-29 17:53 28.37748 76.48787 13296 ft 322 kts 11°
2026-04-29 17:53 28.39860 76.49472 12899 ft 319 kts 11°
2026-04-29 17:54 28.41996 76.50160 12159 ft 317 kts 11°
2026-04-29 17:54 28.44107 76.50835 11421 ft 312 kts 11°
2026-04-29 17:54 28.46154 76.51557 10785 ft 307 kts 21°
2026-04-29 17:54 28.47791 76.53080 10166 ft 308 kts 53°
2026-04-29 17:55 28.48717 76.55262 9625 ft 302 kts 64°
2026-04-29 17:55 28.49598 76.57409 9001 ft 297 kts 62°
2026-04-29 17:55 28.50511 76.59490 8380 ft 292 kts 61°
2026-04-29 17:55 28.51427 76.61550 7772 ft 288 kts 61°
2026-04-29 17:56 28.52317 76.63554 7182 ft 285 kts 61°
2026-04-29 17:56 28.53204 76.65558 6634 ft 281 kts 61°
2026-04-29 17:56 28.54068 76.67514 6230 ft 271 kts 62°
2026-04-29 17:56 28.54894 76.69389 5913 ft 260 kts 62°
2026-04-29 17:57 28.55694 76.71205 5609 ft 255 kts 62°
2026-04-29 17:57 28.56513 76.73060 5330 ft 271 kts 62°
2026-04-29 17:57 28.57375 76.75014 5117 ft 276 kts 62°
2026-04-29 17:57 28.57943 76.76306 5003 ft 274 kts 62°
2026-04-29 17:58 28.59081 76.78895 4634 ft 272 kts 62°
2026-04-29 17:58 28.59918 76.80800 4354 ft 271 kts 62°
2026-04-29 17:58 28.60689 76.82557 4244 ft 262 kts 62°
2026-04-29 17:58 28.61211 76.83749 4133 ft 245 kts 62°
2026-04-29 17:59 28.61779 76.85799 3980 ft 214 kts 89°
2026-04-29 17:59 28.61597 76.87383 3973 ft 200 kts 104°
2026-04-29 17:59 28.61242 76.88938 3799 ft 205 kts 105°
2026-04-29 17:59 28.60886 76.90451 3736 ft 202 kts 106°
2026-04-29 18:00 28.60632 76.91504 3576 ft 204 kts 106°
2026-04-29 18:00 28.60156 76.93537 3245 ft 198 kts 105°
2026-04-29 18:00 28.59811 76.95037 2993 ft 194 kts 105°
2026-04-29 18:00 28.59477 76.96493 2734 ft 183 kts 105°
2026-04-29 18:01 28.59184 76.97773 2521 ft 162 kts 105°
2026-04-29 18:01 28.59003 76.98562 2386 ft 148 kts 105°
2026-04-29 18:01 28.58750 76.99663 2232 ft 143 kts 105°
2026-04-29 18:01 28.58416 77.01115 2005 ft 141 kts 105°
2026-04-29 18:02 28.58250 77.01838 1877 ft 140 kts 106°
2026-04-29 18:02 28.58007 77.02901 1690 ft 138 kts 106°
2026-04-29 18:02 28.57767 77.03948 1536 ft 139 kts 106°
2026-04-29 18:02 28.57526 77.04985 1360 ft 137 kts 106°
2026-04-29 18:03 28.57303 77.06012 1287 ft 132 kts 103°
2026-04-29 18:03 28.57035 77.07053 1087 ft 139 kts 107°
2026-04-29 18:03 28.56804 77.08100 844 ft 135 kts 103°
2026-04-29 18:03 28.56577 77.09117 754 ft 124 kts 104°
2026-04-29 18:04 28.56406 77.09867 751 ft 71 kts 105°
2026-04-29 18:04 28.56296 77.10333 752 ft 58 kts 104°
2026-04-29 18:04 28.56231 77.10636 754 ft 35 kts 101°
2026-04-29 18:04 28.56215 77.10885 755 ft 29 kts 79°
2026-04-29 18:05 28.56267 77.11030 751 ft 8 kts 22°
2026-04-29 18:05 28.56311 77.10985 752 ft 10 kts 288°
2026-04-29 18:05 28.56385 77.10946 751 ft 19 kts
2026-04-29 18:05 28.56551 77.10993 751 ft 26 kts 15°
2026-04-29 18:06 28.56729 77.11042 751 ft 26 kts 12°
2026-04-29 18:06 28.56901 77.11005 754 ft 26 kts 326°
2026-04-29 18:06 28.57055 77.10893 755 ft 26 kts 327°
2026-04-29 18:06 28.57209 77.10780 749 ft 25 kts 330°
2026-04-29 18:07 28.57283 77.10829 748 ft 13 kts 89°
2026-04-29 18:07 28.57282 77.10935 752 ft 13 kts 88°
2026-04-29 18:07 28.57288 77.11045 746 ft 14 kts 86°
2026-04-29 18:07 28.57294 77.11157 748 ft 14 kts 86°
2026-04-29 18:08 28.57291 77.11269 748 ft 14 kts 104°
2026-04-29 18:08 28.57254 77.11344 749 ft 6 kts 122°
2026-04-29 18:08 28.57238 77.11373 750 ft 0 kts 122°